Location: Home
(42.5358°N, 72.7383°W)
Time: 13:28:04
(UTC-05:00)

deb Explorer IX - Pass Details

Date: 05 December 2021
Orbit: 544 x 1082 km, 38.8° (Epoch: 16 January)

Event Time Altitude Azimuth Distance (km) Brightness Sun altitude
Rises 11:25:55 0° 260° (W) 2,969 ? 24.9°
Reaches altitude 10° 11:28:25 10° 256° (WSW) 1,984 ? 24.9°
Maximum altitude 11:32:48 52° 180° (S) 716 ? 25.0°
Drops below altitude 10° 11:36:49 10° 103° (ESE) 1,821 ? 25.0°
Sets 11:39:02 0° 99° (E) 2,698 ? 25.0°
